1536426000.34,20401,18.25,74304.5,4.01,3.29,3.29,0,*7F
1536426001.56,20402,18.25,74300.8,4.03,3.33,3.33,0,*7E
1536426002.78,20403,18.25,74300.8,4.03,3.37,3.37,0,*7F
1536426004.01,20404,18.25,74300.3,4.03,3.37,3.37,0,*78
1536426005.27,20405,18.25,74302.3,4.01,3.33,3.33,0,*7B
1536426006.49,20406,18.25,74300.0,4.03,3.49,3.37,0,*73
1536426007.71,20407,18.25,74304.5,4.03,3.37,3.37,0,*7B
1536426008.94,20408,18.25,74300.3,4.03,3.37,3.45,0,*71
1536426010.16,20409,18.25,74302.3,4.03,3.49,3.49,0,*75
1536426011.39,20410,18.31,74304.8,4.03,3.45,3.37,0,*78
1536426012.62,20411,18.25,74306.5,4.03,3.37,3.49,0,*75
1536426013.87,20412,18.31,74306.3,4.01,3.45,3.53,0,*7A
1536426015.13,20413,18.31,74308.3,4.01,3.45,3.45,0,*7C
1536426016.35,20414,18.25,74306.0,4.03,3.33,3.37,0,*7D
1536426017.57,20415,18.25,74300.8,4.03,3.33,3.45,0,*79
1536426018.8,20416,18.25,74302.5,4.03,3.37,3.45,0,*7E
1536426020.03,20417,18.25,74300.5,4.03,3.45,3.49,0,*76
1536426021.26,20418,18.25,74304.3,4.03,3.45,3.45,0,*75
1536426022.52,20419,18.25,74302.0,4.05,3.41,3.53,0,*71
1536426023.78,20420,18.25,74306.5,4.01,3.41,3.41,0,*7C
1536426025.0,20421,18.25,74304.3,4.03,3.37,3.37,0,*7F
1536426026.23,20422,18.25,74306.3,4.03,3.49,3.49,0,*7C
1536426027.46,20423,18.25,74302.0,4.03,3.45,3.45,0,*7D
1536426028.68,20424,18.31,74306.3,4.03,3.49,3.49,0,*7A
1536426029.88,20425,18.25,74304.3,4.03,3.49,3.55,0,*76
1536426031.13,20426,18.25,74300.8,4.01,3.45,3.45,0,*7A
1536426032.36,20427,18.25,74302.8,4.03,3.49,3.49,0,*79
1536426033.56,20428,18.25,74306.8,4.03,3.45,3.59,0,*7B
1536426034.79,20429,18.25,74306.3,4.03,3.37,3.45,0,*72
1536426036.01,20430,18.25,74302.3,4.03,3.49,3.45,0,*73
1536426037.24,20431,18.25,74304.5,4.03,3.45,3.45,0,*7E
1536426038.46,20432,18.25,74302.0,4.03,3.37,3.37,0,*7D
1536426039.69,20433,18.25,74302.5,4.01,3.33,3.29,0,*75
1536426040.92,20434,18.25,74302.0,4.03,3.37,3.37,0,*7B
1536426042.14,20435,18.25,74306.5,4.03,3.33,3.45,0,*7B
1536426043.37,20436,18.25,74306.8,4.03,3.33,3.33,0,*79
1536426044.55,20437,18.25,74302.5,4.03,3.29,3.29,0,*78
1536426045.73,20438,18.25,74306.0,4.03,3.29,3.29,0,*77
1536426046.99,20439,18.25,74306.8,4.01,3.41,3.45,0,*70
1536426048.21,20440,18.25,74306.3,4.03,3.49,3.49,0,*78
1536426049.44,20441,18.25,74304.5,4.03,3.49,3.45,0,*75
1536426050.7,20442,18.25,74306.8,4.01,3.45,3.41,0,*7C
1536426051.96,20443,18.25,74304.3,4.01,3.45,3.45,0,*79
1536426053.19,20444,18.25,74302.0,4.03,3.45,3.45,0,*7C
1536426054.42,20445,18.25,74304.3,4.01,3.29,3.33,0,*74
1536426055.65,20446,18.25,74304.3,4.03,3.45,3.45,0,*7E
1536426056.88,20447,18.25,74306.0,4.03,3.45,3.45,0,*7F
1536426058.11,20448,18.25,74306.8,4.03,3.37,3.45,0,*75
1536426059.34,20449,18.25,74302.0,4.03,3.45,3.45,0,*71
1536426060.56,20450,18.25,74302.0,4.03,3.49,3.49,0,*79
1536426061.79,20451,18.25,74306.3,4.03,3.45,3.49,0,*74
1536426063.02,20452,18.25,74304.3,4.03,3.37,3.33,0,*7F
1536426064.24,20453,18.25,74306.0,4.01,3.33,3.29,0,*73
1536426065.47,20454,18.25,74306.5,4.03,3.37,3.45,0,*78
1536426066.68,20455,18.25,74306.0,4.01,3.29,3.29,0,*7E
1536426067.94,20456,18.25,74306.0,4.01,3.33,3.41,0,*78
1536426069.17,20457,18.25,74308.3,4.03,3.45,3.49,0,*72
1536426070.43,20458,18.25,74304.0,4.01,3.41,3.41,0,*73
1536426071.69,20459,18.25,74308.5,4.01,3.33,3.41,0,*77
1536426072.95,20460,18.25,74304.0,4.01,3.41,3.45,0,*7C
1536426074.21,20461,18.25,74306.0,4.01,3.41,3.45,0,*7D
1536426075.41,20462,18.25,74300.0,4.03,3.49,3.59,0,*79
1536426076.67,20463,18.25,74300.5,4.01,3.45,3.41,0,*7F
1536426077.9,20464,18.25,74302.8,3.99,3.45,3.33,0,*7B
1536426079.13,20465,18.25,74300.0,4.03,3.45,3.49,0,*73
1536426080.39,20466,18.25,74302.8,4.01,3.45,3.45,0,*7E
1536426081.63,20467,18.25,74302.3,4.01,3.29,3.33,0,*74
1536426082.86,20468,18.25,74302.0,4.01,3.29,3.33,0,*7B
1536426084.12,20469,18.25,74304.0,4.01,3.41,3.45,0,*75
1536426085.39,20470,18.25,74300.5,4.01,3.41,3.41,0,*79
1536426086.6,20471,18.25,74302.5,4.01,3.29,3.29,0,*78
1536426087.86,20472,18.25,74302.5,4.01,3.41,3.41,0,*7B
1536426089.12,20473,18.25,74300.0,4.01,3.33,3.41,0,*7F
1536426090.35,20474,18.25,74296.5,4.01,3.29,3.33,0,*76
1536426091.62,20475,18.25,74300.8,4.01,3.41,3.45,0,*78
1536426092.88,20476,18.25,74304.8,4.01,3.41,3.41,0,*7F
1536426094.15,20477,18.25,74302.5,4.01,3.41,3.41,0,*7E
1536426095.32,20478,18.25,74300.0,4.03,3.29,3.29,0,*73
1536426096.5,20479,18.25,74302.8,4.03,3.29,3.29,0,*72
1536426097.74,20480,18.25,74300.8,4.01,3.29,3.33,0,*7D
1536426098.95,20481,18.25,74302.3,4.01,3.29,3.29,0,*77
1536426100.2,20482,18.25,74304.0,4.01,3.33,3.41,0,*71
1536426101.44,20483,18.25,74300.3,3.99,3.45,3.45,0,*73
1536426102.7,20484,18.25,74302.5,4.01,3.41,3.41,0,*72
1536426103.97,20485,18.25,74302.8,4.01,3.41,3.41,0,*73
1536426105.22,20486,18.25,74300.8,4.01,3.33,3.33,0,*70
1536426106.48,20487,18.25,74300.5,4.01,3.45,3.45,0,*71
1536426107.75,20488,18.25,74304.0,4.01,3.41,3.41,0,*7E
1536426109.01,20489,18.25,74302.0,4.01,3.41,3.41,0,*7F
1536426110.27,20490,18.25,74302.5,4.01,3.41,3.33,0,*72
1536426111.51,20491,18.25,74304.0,3.99,3.45,3.41,0,*74
1536426112.75,20492,18.25,74302.5,3.99,3.45,3.45,0,*73
1536426114.0,20493,18.31,74306.3,4.01,3.45,3.45,0,*74
1536426115.26,20494,18.25,74300.8,4.01,3.49,3.45,0,*7F
1536426116.49,20495,18.25,74302.0,4.03,3.33,3.33,0,*70
1536426117.74,20496,18.25,74298.8,4.01,3.33,3.41,0,*74
1536426118.98,20497,18.25,74300.0,3.99,3.33,3.41,0,*73
1536426120.22,20498,18.25,74306.0,3.99,3.41,3.41,0,*79
1536426121.46,20499,18.25,74302.8,3.99,3.41,3.33,0,*7D
1536426122.69,20500,18.25,74300.3,4.01,3.29,3.33,0,*74
1536426123.93,20501,18.25,74302.0,4.01,3.29,3.33,0,*75
1536426125.16,20502,18.25,74298.8,4.01,3.29,3.33,0,*76
1536426126.39,20503,18.25,74302.3,4.01,3.33,3.29,0,*77
1536426127.6,20504,18.25,74300.5,4.01,3.29,3.29,0,*7B
1536426128.85,20505,18.25,74300.3,4.01,3.33,3.33,0,*7A
1536426130.08,20506,18.25,74304.0,3.99,3.33,3.33,0,*7F
1536426131.29,20507,18.25,74302.8,4.01,3.29,3.29,0,*78
1536426132.5,20508,18.25,74304.3,4.01,3.29,3.29,0,*77
1536426133.71,20509,18.25,74300.5,3.99,3.19,3.29,0,*73
1536426134.89,20510,18.25,74298.0,3.99,3.29,3.29,0,*78
1536426136.1,20511,18.25,74300.8,3.99,3.29,3.33,0,*72
1536426137.31,20512,18.25,74300.0,3.99,3.29,3.33,0,*71
1536426138.52,20513,18.25,74300.8,3.99,3.19,3.25,0,*74
1536426139.73,20514,18.25,74298.8,3.99,3.11,3.25,0,*7B
1536426140.93,20515,18.25,74302.3,3.99,3.33,3.29,0,*76
1536426142.17,20516,18.25,74302.5,3.97,3.25,3.37,0,*73
1536426143.37,20517,18.25,74302.8,3.97,3.29,3.29,0,*71
1536426144.61,20518,18.25,74302.5,3.99,3.33,3.33,0,*70
1536426145.84,20519,18.25,74304.5,3.99,3.33,3.41,0,*74
1536426147.07,20520,18.25,74296.8,3.99,3.33,3.33,0,*7B
1536426148.28,20521,18.25,74300.0,3.97,3.29,3.25,0,*78
1536426149.49,20522,18.25,74300.5,3.97,3.25,3.25,0,*77
1536426150.7,20523,18.25,74304.5,3.97,3.29,3.29,0,*76
1536426151.93,20524,18.25,74300.5,3.99,3.33,3.33,0,*7F
1536426153.2,20525,18.25,74296.3,3.97,3.41,3.41,0,*70
1536426154.4,20526,18.25,74298.8,3.97,3.29,3.25,0,*7F
1536426155.61,20527,18.31,74304.0,3.97,3.29,3.25,0,*7E
1536426156.82,20528,18.25,74302.8,3.97,3.29,3.25,0,*71
1536426158.03,20529,18.25,74302.3,3.97,3.29,3.29,0,*7C
1536426159.24,20530,18.25,74300.3,3.99,3.33,3.29,0,*71
1536426160.49,20531,18.25,74302.5,3.97,3.23,3.23,0,*75
1536426161.67,20532,18.25,74300.3,3.99,3.25,3.29,0,*74
1536426162.94,20533,18.25,74306.5,3.97,3.41,3.41,0,*77
1536426164.17,20534,18.25,74300.0,3.99,3.33,3.33,0,*7E
1536426165.43,20535,18.25,74298.0,3.97,3.37,3.37,0,*71
1536426166.63,20536,18.25,74298.5,3.97,3.25,3.25,0,*72
1536426167.84,20537,18.25,74302.8,3.97,3.29,3.29,0,*73
1536426169.07,20538,18.25,74298.8,3.97,3.37,3.29,0,*73
1536426170.34,20539,18.25,74296.8,3.97,3.15,3.15,0,*7D
1536426171.59,20540,18.25,74296.0,3.97,3.23,3.23,0,*73
1536426172.82,20541,18.25,74298.8,3.97,3.25,3.23,0,*74
1536426174.03,20542,18.25,74300.8,3.97,3.25,3.25,0,*71
1536426175.24,20543,18.25,74300.8,3.97,3.29,3.25,0,*7C
1536426176.45,20544,18.25,74300.3,3.97,3.25,3.25,0,*77
1536426177.68,20545,18.25,74296.0,3.97,3.23,3.25,0,*70
1536426178.94,20546,18.25,74300.5,3.97,3.15,3.23,0,*70
1536426180.19,20547,18.25,74300.8,3.97,3.23,3.23,0,*74
1536426181.4,20548,18.25,74298.8,3.97,3.25,3.29,0,*77
1536426182.6,20549,18.25,74300.8,3.95,3.25,3.25,0,*78
1536426183.84,20550,18.25,74298.3,3.97,3.23,3.25,0,*74
1536426185.09,20551,18.25,74296.0,3.95,3.15,3.15,0,*71
1536426186.35,20552,18.25,74298.8,3.95,3.23,3.15,0,*77
1536426187.6,20553,18.25,74298.5,3.95,3.23,3.23,0,*73
1536426188.79,20554,18.25,74296.8,3.95,3.25,3.25,0,*74
1536426190.04,20555,18.25,74298.0,3.95,3.37,3.37,0,*75
1536426191.27,20556,18.25,74296.5,3.95,3.37,3.29,0,*79
1536426192.46,20557,18.25,74294.8,3.95,3.25,3.25,0,*77
1536426193.67,20558,18.25,74298.8,3.95,3.29,3.29,0,*78
1536426194.89,20559,18.25,74300.0,3.95,3.37,3.29,0,*76
1536426196.07,20560,18.25,74298.3,3.99,3.29,3.29,0,*7F
1536426197.33,20561,18.25,74296.0,3.97,3.23,3.23,0,*70
1536426198.54,20562,18.25,74298.0,3.97,3.29,3.29,0,*73
1536426199.76,20563,18.25,74296.5,3.95,3.37,3.25,0,*73
1536426200.96,20564,18.25,74300.0,3.95,3.25,3.25,0,*77
1536426202.16,20565,18.25,74300.0,3.95,3.29,3.29,0,*76
1536426203.36,20566,18.25,74300.0,3.95,3.29,3.29,0,*75
1536426204.56,20567,18.25,74298.5,3.95,3.29,3.29,0,*74
1536426205.76,20568,18.25,74298.5,3.95,3.25,3.29,0,*77
1536426207.01,20569,18.25,74302.5,3.95,3.37,3.37,0,*7A
1536426208.21,20570,18.25,74304.8,3.95,3.29,3.29,0,*72
1536426209.47,20571,18.25,74302.3,3.95,3.41,3.41,0,*73
1536426210.72,20572,18.25,74300.8,3.95,3.37,3.41,0,*71
1536426211.97,20573,18.25,74306.8,3.95,3.37,3.37,0,*71
1536426213.21,20574,18.25,74302.5,3.95,3.37,3.37,0,*76
1536426214.41,20575,18.25,74302.5,3.95,3.25,3.25,0,*77
1536426215.61,20576,18.25,74306.5,3.95,3.29,3.29,0,*74
1536426216.87,20577,18.25,74304.8,3.95,3.41,3.41,0,*75
1536426218.09,20578,18.25,74302.3,3.95,3.37,3.29,0,*75
1536426219.32,20579,18.25,74300.8,3.95,3.37,3.29,0,*74
1536426220.58,20580,18.25,74304.8,3.95,3.41,3.41,0,*7D
1536426221.81,20581,18.25,74306.8,3.97,3.41,3.29,0,*70
1536426223.07,20582,18.25,74306.8,3.97,3.37,3.37,0,*7D
1536426224.31,20583,18.25,74308.3,3.97,3.29,3.41,0,*72
1536426225.56,20584,18.25,74306.3,3.97,3.37,3.37,0,*7B
1536426226.82,20585,18.25,74304.0,3.97,3.37,3.41,0,*7B
1536426228.08,20586,18.25,74306.0,3.97,3.37,3.49,0,*70
1536426229.34,20587,18.25,74308.8,3.97,3.41,3.37,0,*79
1536426230.6,20588,18.25,74308.3,3.97,3.37,3.41,0,*76
1536426231.82,20589,18.25,74310.0,3.95,3.25,3.37,0,*77
1536426233.07,20590,18.25,74308.0,3.95,3.41,3.37,0,*7D
1536426234.28,20591,18.25,74308.8,3.97,3.29,3.29,0,*7F
1536426235.49,20592,18.25,74304.8,3.97,3.25,3.25,0,*7C
1536426236.7,20593,18.25,74306.5,3.97,3.25,3.25,0,*7D
1536426237.9,20594,18.25,74306.3,3.95,3.29,3.29,0,*78
1536426239.15,20595,18.25,74308.5,3.95,3.37,3.41,0,*78
1536426240.41,20596,18.25,74310.0,3.95,3.37,3.41,0,*7B
1536426241.64,20597,18.25,74308.8,3.95,3.25,3.41,0,*79
1536426242.84,20598,18.25,74310.0,3.95,3.25,3.29,0,*78
1536426244.04,20599,18.25,74310.5,3.95,3.25,3.25,0,*75
1536426245.24,20600,18.25,74310.5,3.95,3.25,3.25,0,*76
1536426246.48,20601,18.25,74308.3,3.95,3.23,3.23,0,*77
1536426247.74,20602,18.25,74306.3,3.95,3.11,3.15,0,*70
1536426248.99,20603,18.25,74306.5,3.95,3.11,3.15,0,*71
1536426250.24,20604,18.25,74304.0,3.95,3.23,3.15,0,*77
1536426251.46,20605,18.25,74310.5,3.95,3.25,3.23,0,*75
1536426252.69,20606,18.25,74306.8,3.95,3.25,3.23,0,*76
1536426253.9,20607,18.25,74304.5,3.93,3.19,3.19,0,*77
1536426255.13,20608,18.25,74302.5,3.93,3.11,3.15,0,*7C
1536426256.32,20609,18.25,74296.0,3.93,2.99,3.07,0,*7F
1536426257.54,20610,18.25,74298.5,3.93,3.19,3.19,0,*71
1536426258.76,20611,18.25,74298.0,3.95,3.25,3.23,0,*70
1536426259.93,20612,18.25,74298.0,3.93,3.29,3.29,0,*73
1536426261.13,20613,18.25,74302.0,3.95,3.29,3.29,0,*74
1536426262.36,20614,18.25,74306.3,3.93,3.33,3.33,0,*75
1536426263.58,20615,18.25,74306.8,3.93,3.33,3.33,0,*74
1536426264.8,20616,18.25,74300.0,3.93,3.33,3.33,0,*77
1536426266.02,20617,18.25,74296.8,3.93,3.33,3.33,0,*76
1536426267.27,20618,18.25,74302.0,3.95,3.37,3.37,0,*7F
1536426268.47,20619,18.25,74302.8,3.93,3.25,3.33,0,*7F
1536426269.72,20620,18.25,74300.0,3.95,3.37,3.37,0,*74
1536426270.92,20621,18.25,74304.3,3.95,3.29,3.29,0,*75
1536426272.14,20622,18.25,74300.5,3.93,3.23,3.23,0,*70
1536426273.31,20623,18.25,74302.8,3.93,3.25,3.25,0,*71
1536426274.56,20624,18.25,74302.3,3.95,3.41,3.37,0,*71
1536426275.76,20625,18.25,74306.3,3.93,3.23,3.25,0,*71
1536426276.98,20626,18.25,74306.3,3.93,3.23,3.23,0,*74
1536426278.2,20627,18.25,74306.5,3.93,3.23,3.23,0,*75
1536426279.41,20628,18.25,74302.0,3.93,3.23,3.25,0,*7C
1536426280.63,20629,18.25,74302.3,3.93,3.23,3.23,0,*7B
1536426281.84,20630,18.25,74304.0,3.93,3.19,3.23,0,*7A
1536426283.04,20631,18.31,74310.5,3.95,3.25,3.29,0,*78
1536426284.29,20632,18.25,74302.5,3.95,3.37,3.37,0,*77
1536426285.49,20633,18.25,74304.5,3.93,3.25,3.33,0,*77
1536426286.69,20634,18.25,74308.8,3.93,3.23,3.25,0,*71
1536426287.89,20635,18.25,74306.3,3.95,3.25,3.25,0,*70
1536426289.11,20636,18.25,74306.5,3.93,3.23,3.23,0,*75
1536426290.31,20637,18.25,74304.5,3.95,3.29,3.29,0,*72
1536426291.51,20638,18.25,74304.0,3.93,3.23,3.25,0,*7D
1536426292.69,20639,18.25,74296.8,3.93,3.25,3.25,0,*7A
1536426293.89,20640,18.25,74302.5,3.95,3.25,3.29,0,*7E
1536426295.09,20641,18.25,74306.3,3.93,3.23,3.25,0,*73
1536426296.31,20642,18.25,74300.5,3.93,3.23,3.23,0,*76
1536426297.51,20643,18.25,74298.0,3.93,3.23,3.25,0,*71
1536426298.73,20644,18.25,74302.5,3.93,3.23,3.23,0,*70
1536426299.95,20645,18.31,74306.8,3.93,3.23,3.23,0,*71
1536426301.17,20646,18.25,74304.5,3.93,3.23,3.23,0,*72
1536426302.39,20647,18.25,74300.0,3.93,3.19,3.07,0,*7C
1536426303.61,20648,18.25,74304.8,3.93,3.23,3.19,0,*75
1536426304.82,20649,18.25,74302.8,3.93,3.19,3.19,0,*7D
1536426306.04,20650,18.25,74302.8,3.93,3.19,3.19,0,*75
1536426307.26,20651,18.25,74302.5,3.93,3.23,3.23,0,*74
1536426308.43,20652,18.25,74300.3,3.93,3.25,3.25,0,*77
1536426309.61,20653,18.25,74302.0,3.89,3.29,3.29,0,*7D
1536426310.79,20654,18.25,74300.0,3.93,3.25,3.25,0,*71
1536426312.01,20655,18.25,74300.0,3.93,3.11,3.11,0,*70
1536426313.23,20656,18.25,74304.5,3.93,3.19,3.19,0,*73
1536426314.47,20657,18.25,74304.3,3.89,3.15,3.15,0,*79
1536426315.7,20658,18.25,74298.8,3.89,3.15,3.15,0,*76
1536426316.94,20659,18.25,74298.3,3.89,3.15,3.15,0,*77
1536426318.18,20660,18.25,74298.3,3.89,3.15,3.15,0,*7D
1536426319.41,20661,18.25,74296.8,3.89,3.15,3.19,0,*70
1536426320.64,20662,18.25,74302.3,3.89,3.23,3.23,0,*7F
1536426321.86,20663,18.25,74302.5,3.89,3.23,3.23,0,*7E
1536426323.07,20664,18.25,74300.5,3.89,3.23,3.29,0,*73
1536426324.29,20665,18.25,74300.3,3.89,3.19,3.19,0,*78
1536426325.52,20666,18.25,74300.8,3.89,3.23,3.23,0,*7B
1536426326.74,20667,18.25,74300.0,3.89,3.19,3.19,0,*7A
1536426327.96,20668,18.25,74298.8,3.89,3.19,3.15,0,*79
1536426329.2,20669,18.25,74298.5,3.89,3.23,3.15,0,*71
1536426330.44,20670,18.31,74306.3,3.87,3.19,3.23,0,*7B
1536426331.66,20671,18.25,74300.3,3.89,3.19,3.19,0,*7D
1536426332.88,20672,18.25,74302.8,3.89,3.19,3.19,0,*7E
1536426334.1,20673,18.25,74296.0,3.89,3.19,3.23,0,*76
1536426335.35,20674,18.25,74300.0,3.87,3.23,3.23,0,*76
1536426336.56,20675,18.25,74294.8,3.89,3.23,3.29,0,*73
1536426337.76,20676,18.25,74290.8,3.89,3.29,3.33,0,*71
1536426338.96,20677,18.25,74298.3,3.87,3.29,3.29,0,*75
1536426340.2,20678,18.25,74294.5,3.87,3.19,3.23,0,*73
1536426341.43,20679,18.25,74292.8,3.89,3.23,3.23,0,*75
1536426342.65,20680,18.25,74292.8,3.89,3.19,3.23,0,*7A
1536426343.89,20681,18.25,74292.5,3.87,3.19,3.19,0,*7C
1536426345.12,20682,18.25,74292.8,3.89,3.23,3.23,0,*71
1536426346.37,20683,18.25,74292.8,3.87,3.23,3.23,0,*7E
1536426347.59,20684,18.25,74298.8,3.89,3.23,3.23,0,*77
1536426348.79,20685,18.25,74298.8,3.87,3.29,3.29,0,*78
1536426350.0,20686,18.25,74296.5,3.87,3.29,3.29,0,*7B
1536426351.18,20687,18.25,74298.3,3.89,3.29,3.29,0,*74
1536426352.41,20688,18.25,74300.5,3.89,3.15,3.19,0,*77
1536426353.65,20689,18.25,74296.5,3.89,3.15,3.15,0,*7A
1536426354.87,20690,18.25,74298.5,3.89,3.19,3.23,0,*7B
1536426356.09,20691,18.25,74294.5,3.89,3.23,3.23,0,*73
1536426357.32,20692,18.25,74300.0,3.89,3.23,3.19,0,*79
1536426358.54,20693,18.25,74300.3,3.89,3.19,3.23,0,*78
1536426359.78,20694,18.25,74306.5,3.87,3.19,3.19,0,*78
1536426361.01,20695,18.25,74306.8,3.89,3.19,3.15,0,*7B
1536426362.26,20696,18.25,74298.8,3.87,3.19,3.15,0,*76
1536426363.51,20697,18.25,74304.0,3.87,3.07,3.07,0,*7B
1536426364.75,20698,18.25,74300.3,3.89,3.15,3.15,0,*7A
1536426365.98,20699,18.25,74306.8,3.89,3.03,3.07,0,*7F
1536426367.23,20700,18.25,74302.8,3.87,3.07,3.07,0,*74
1536426368.49,20701,18.25,74302.0,3.87,3.07,3.07,0,*75
1536426369.74,20702,18.25,74302.3,3.87,2.81,2.73,0,*7B
1536426370.92,20703,18.25,74302.5,3.85,2.65,2.65,0,*75
1536426372.14,20704,18.25,74302.5,3.85,2.77,2.77,0,*72
1536426373.37,20705,18.25,74300.5,3.85,2.81,2.89,0,*7B
1536426374.55,20706,18.25,74300.0,3.85,2.99,2.91,0,*78
1536426375.75,20707,18.25,74302.3,3.83,2.91,2.91,0,*77
1536426376.98,20708,18.25,74304.3,3.85,3.11,3.11,0,*7E
1536426378.21,20709,18.25,74296.3,3.85,3.03,3.03,0,*7F
1536426379.46,20710,18.25,74302.5,3.83,3.11,3.03,0,*72
1536426380.69,20711,18.25,74306.3,3.85,3.11,3.11,0,*76
1536426381.92,20712,18.25,74306.3,3.85,3.15,3.19,0,*79
1536426383.15,20713,18.25,74300.3,3.85,3.11,3.15,0,*70
1536426384.38,20714,18.25,74298.5,3.85,3.11,3.11,0,*73
1536426385.6,20715,18.25,74300.5,3.85,3.19,3.19,0,*72
1536426386.83,20716,18.25,74306.8,3.85,3.15,3.15,0,*71
1536426388.05,20717,18.25,74302.5,3.85,2.69,2.77,0,*7F
1536426389.3,20718,18.25,74296.8,3.83,2.89,2.89,0,*79
1536426390.56,20719,18.25,74300.5,3.83,3.11,3.11,0,*78
1536426391.81,20720,18.25,74306.0,3.83,3.11,3.11,0,*72
1536426393.06,20721,18.25,74302.8,3.83,3.11,3.15,0,*77
1536426394.31,20722,18.25,74304.8,3.83,3.19,3.15,0,*7C
1536426395.56,20723,18.25,74302.0,3.83,3.19,3.15,0,*7D
1536426396.79,20724,18.25,74302.8,3.85,3.15,3.11,0,*74
1536426398.05,20725,18.25,74302.3,3.83,3.15,3.11,0,*73
1536426399.28,20726,18.25,74302.0,3.85,3.15,3.15,0,*72
1536426400.51,20727,18.25,74300.5,3.85,3.15,3.19,0,*7F
1536426401.73,20728,18.25,74306.8,3.85,3.19,3.19,0,*7C
1536426402.95,20729,18.25,74302.3,3.85,3.19,3.19,0,*7D
1536426404.16,20730,18.25,74304.5,3.85,3.19,3.19,0,*75
1536426405.36,20731,18.25,74310.0,3.85,3.19,3.25,0,*7B
1536426406.54,20732,18.25,74306.5,3.85,3.25,3.25,0,*77
1536426407.77,20733,18.25,74306.3,3.85,3.15,3.15,0,*76
1536426409.03,20734,18.25,74308.0,3.83,3.11,3.15,0,*73
1536426410.25,20735,18.25,74306.5,3.85,3.19,3.15,0,*7C
1536426411.5,20736,18.25,74308.3,3.83,3.15,3.19,0,*79
1536426412.73,20737,18.25,74310.8,3.85,3.15,3.19,0,*7E
1536426413.93,20738,18.25,74308.3,3.85,3.19,3.25,0,*72
1536426415.16,20739,18.25,74308.8,3.83,3.15,3.25,0,*79
1536426416.39,20740,18.25,74310.0,3.85,3.03,3.03,0,*72
1536426417.62,20741,18.25,74310.5,3.83,2.91,2.81,0,*74
1536426418.85,20742,18.25,74310.3,3.83,2.65,2.69,0,*7A
1536426420.1,20743,18.25,74308.3,3.83,2.47,2.43,0,*73
1536426421.31,20744,18.25,74306.3,3.83,2.65,2.65,0,*70
1536426422.53,20745,18.25,74308.0,3.83,2.89,2.91,0,*78
1536426423.7,20746,18.25,74304.8,3.81,2.99,2.95,0,*7C
1536426424.93,20747,18.25,74310.0,3.81,3.07,3.07,0,*71
1536426426.16,20748,18.25,74310.5,3.81,2.89,2.89,0,*7E
1536426427.34,20749,18.25,74308.0,3.81,2.61,2.61,0,*7F
1536426428.57,20750,18.25,74304.5,3.81,2.43,2.43,0,*77
1536426429.74,20751,18.25,74306.0,3.81,2.31,2.31,0,*76
1536426430.94,20752,18.25,74308.8,3.79,2.35,2.35,0,*72
1536426432.11,20753,18.25,74304.5,3.77,2.35,2.35,0,*7D
1536426433.34,20754,18.25,74302.5,3.77,2.51,2.47,0,*7D
1536426434.54,20755,18.25,74300.5,3.77,2.35,2.39,0,*77
1536426435.76,20756,18.25,74300.5,3.75,2.69,2.65,0,*76
1536426436.97,20757,18.25,74292.8,3.77,2.61,2.51,0,*7A
1536426438.21,20758,18.25,74300.5,3.75,2.55,2.55,0,*74
1536426439.46,20759,18.25,74300.8,3.75,2.77,2.77,0,*75
1536426440.71,20760,18.25,74302.5,3.75,2.89,2.89,0,*7F
1536426441.97,20761,18.25,74298.3,3.75,2.81,2.81,0,*7E
1536426443.17,20762,18.25,74288.5,3.75,2.65,2.65,0,*7D
1536426444.42,20763,18.25,74286.3,3.75,2.89,2.89,0,*7C
1536426445.62,20764,18.25,74282.5,3.73,2.89,2.91,0,*74
1536426446.8,20765,18.25,74290.0,3.73,2.99,2.99,0,*7C
1536426448.05,20766,18.25,74286.0,3.75,3.03,3.03,0,*79
1536426449.3,20767,18.25,74278.8,3.75,3.03,3.07,0,*7C
1536426450.56,20768,18.25,74270.5,3.75,3.03,3.07,0,*73
1536426451.78,20769,18.25,74266.3,3.75,3.03,2.99,0,*74
1536426452.98,20770,18.25,74298.5,3.75,2.99,2.99,0,*7E
1536426454.21,20771,18.25,74296.3,3.77,3.03,3.07,0,*79
1536426455.44,20772,18.25,74296.8,3.75,2.99,3.03,0,*7E
1536426456.63,20773,18.25,74296.0,3.75,2.99,2.99,0,*7D
1536426457.89,20774,18.25,74296.0,3.75,3.03,3.07,0,*7E
1536426459.14,20775,18.25,74294.0,3.75,3.07,3.03,0,*7F
1536426460.38,20776,18.25,74296.3,3.77,3.07,3.11,0,*7D
1536426461.61,20777,18.25,74302.5,3.77,3.07,3.07,0,*7B
1536426462.84,20778,18.25,74292.3,3.77,3.07,3.11,0,*73
1536426464.04,20779,18.25,74296.5,3.75,2.91,2.91,0,*77
1536426465.24,20780,18.25,74300.5,3.75,2.99,2.99,0,*71
1536426466.47,20781,18.25,74296.8,3.75,2.91,2.89,0,*79
1536426467.69,20782,18.25,74298.8,3.77,2.85,2.81,0,*75
1536426468.89,20783,18.25,74300.8,3.75,2.99,2.99,0,*72
1536426470.09,20784,18.25,74300.5,3.75,2.99,2.91,0,*7D
1536426471.29,20785,18.25,74306.3,3.75,2.91,2.99,0,*7C
1536426472.49,20786,18.25,74302.8,3.75,2.99,2.99,0,*77
1536426473.71,20787,18.25,74300.0,3.75,3.03,2.99,0,*74
1536426474.94,20788,18.25,74298.5,3.75,2.91,3.03,0,*73
1536426476.14,20789,18.25,74296.5,3.75,2.99,2.99,0,*78
1536426477.34,20790,18.25,74294.5,3.75,2.91,2.99,0,*78
1536426478.57,20791,18.25,74298.8,3.77,3.03,3.03,0,*73
1536426479.77,20792,18.25,74298.3,3.75,2.99,2.99,0,*72
1536426480.97,20793,18.25,74298.0,3.75,2.91,2.91,0,*73
1536426482.22,20794,18.25,74290.0,3.75,2.69,2.77,0,*7B
1536426483.47,20795,18.25,74286.0,3.75,2.89,2.89,0,*75
1536426484.72,20796,18.25,74282.5,3.75,2.81,2.77,0,*7F
1536426485.97,20797,18.25,74284.3,3.75,2.81,2.81,0,*77
1536426487.19,20798,18.25,74286.0,3.75,2.89,2.99,0,*79
1536426488.39,20799,18.25,74292.5,3.75,2.99,2.99,0,*79
1536426489.62,20800,18.25,74288.8,3.75,2.91,2.89,0,*7F
1536426490.82,20801,18.25,74296.5,3.75,2.91,2.99,0,*7F
1536426492.0,20802,18.25,74296.5,3.73,2.99,2.91,0,*7A
1536426493.17,20803,18.25,74296.5,3.73,2.99,2.99,0,*73
1536426494.35,20804,18.25,74294.8,3.73,2.99,2.99,0,*74
1536426495.61,20805,18.25,74296.0,3.75,3.03,3.03,0,*73
1536426496.82,20806,18.25,74292.5,3.73,3.07,2.99,0,*70
1536426498.05,20807,18.25,74296.5,3.73,3.03,3.03,0,*77
1536426499.28,20808,18.25,74298.8,3.73,3.03,3.07,0,*7C
1536426500.48,20809,18.25,74294.8,3.73,2.99,3.03,0,*7B
1536426501.72,20810,18.25,74288.3,3.73,3.03,3.03,0,*71
1536426502.95,20811,18.25,74286.5,3.73,3.03,3.03,0,*70
1536426504.13,20812,18.25,74292.0,3.73,2.91,2.91,0,*73
1536426505.31,20813,18.25,74294.5,3.73,2.99,2.99,0,*72
1536426506.57,20814,18.25,74290.5,3.75,3.07,3.03,0,*77
1536426507.8,20815,18.25,74292.8,3.73,3.07,3.03,0,*70
1536426508.98,20816,18.25,74290.8,3.73,2.99,2.91,0,*7F
1536426510.22,20817,18.25,74294.3,3.73,3.07,3.07,0,*76
1536426511.45,20818,18.25,74294.3,3.73,3.07,3.03,0,*7D
1536426512.69,20819,18.25,74296.5,3.73,3.03,3.03,0,*78
1536426513.92,20820,18.25,74300.0,3.73,3.07,3.03,0,*76
1536426515.18,20821,18.25,74304.5,3.75,3.03,3.03,0,*75
1536426516.41,20822,18.25,74308.3,3.77,3.07,3.07,0,*74
1536426517.61,20823,18.25,74302.5,3.75,2.99,2.99,0,*77
1536426518.78,20824,18.25,74304.3,3.73,2.99,2.99,0,*76
1536426520.02,20825,18.25,74302.3,3.73,3.03,3.03,0,*77
1536426521.25,20826,18.25,74302.3,3.73,3.03,3.03,0,*74
1536426522.49,20827,18.25,74300.3,3.73,3.03,3.03,0,*75
1536426523.71,20828,18.25,74302.3,3.73,2.89,2.89,0,*7A
1536426524.95,20829,18.25,74296.3,3.73,2.81,2.89,0,*73
1536426526.18,20830,18.25,74300.0,3.73,2.81,2.81,0,*73
1536426527.41,20831,18.25,74302.5,3.73,2.89,2.89,0,*72
1536426528.64,20832,18.25,74296.5,3.73,2.89,2.81,0,*79
1536426529.89,20833,18.25,74300.3,3.71,2.85,2.77,0,*7F
1536426531.14,20834,18.25,74298.8,3.71,2.85,2.85,0,*75
1536426532.32,20835,18.25,74300.3,3.73,2.99,2.99,0,*76
1536426533.57,20836,18.25,74300.0,3.71,2.89,2.89,0,*77
1536426534.79,20837,18.25,74300.0,3.71,2.89,2.95,0,*7B